Time,TemperatureF,DewpointF,PressureIn,WindDirection,WindDirectionDegrees,WindSpeedMPH,WindSpeedGustMPH,Humidity,HourlyPrecipIn,Conditions,Clouds,dailyrainin,SoftwareType,DateUTC
2013-07-06 00:19:00,75.4,73.8,30.18,South,174,0.0,7.9,95,0.00,,CLR,0.00,VWS V14.00,2013-07-06 04:19:00,
2013-07-06 00:39:00,73.6,72.2,30.18,East,101,0.0,5.7,96,0.00,,CLR,0.00,VWS V14.00,2013-07-06 04:39:00,
2013-07-06 00:59:00,73.4,72.3,30.18,East,90,0.0,4.4,96,0.00,,FEW250,0.00,VWS V14.00,2013-07-06 04:59:00,
2013-07-06 01:19:00,72.9,72.2,30.18,East,97,0.0,6.6,98,0.00,,FEW250,0.00,VWS V14.00,2013-07-06 05:19:00,
2013-07-06 01:39:00,72.8,72.3,30.17,South,186,0.0,6.1,98,0.00,,FEW250,0.00,VWS V14.00,2013-07-06 05:39:00,
2013-07-06 01:59:00,72.7,72.4,30.17,South,181,0.0,5.0,99,0.00,,CLR,0.00,VWS V14.00,2013-07-06 05:59:00,
2013-07-06 02:19:00,72.0,71.9,30.16,South,181,0.0,0.0,100,0.00,,CLR,0.00,VWS V14.00,2013-07-06 06:19:00,
2013-07-06 02:39:00,72.0,72.0,30.16,South,181,0.0,0.0,100,0.00,,CLR,0.00,VWS V14.00,2013-07-06 06:39:00,
2013-07-06 02:59:00,71.4,71.4,30.16,South,174,4.5,5.5,100,0.00,,CLR,0.00,VWS V14.00,2013-07-06 06:59:00,
2013-07-06 03:19:00,71.5,71.5,30.16,South,179,0.0,5.8,100,0.00,,CLR,0.00,VWS V14.00,2013-07-06 07:19:00,
2013-07-06 03:39:00,73.4,73.4,30.16,SSE,158,0.0,7.0,100,0.00,,CLR,0.00,VWS V14.00,2013-07-06 07:39:00,
2013-07-06 03:59:00,71.4,71.4,30.17,SSE,163,6.3,6.9,100,0.00,,CLR,0.00,VWS V14.00,2013-07-06 07:59:00,
2013-07-06 04:19:00,71.5,71.5,30.16,SSE,167,0.0,6.5,100,0.00,,CLR,0.00,VWS V14.00,2013-07-06 08:19:00,
2013-07-06 04:39:00,71.0,71.0,30.16,SSE,167,0.0,0.0,100,0.00,,CLR,0.00,VWS V14.00,2013-07-06 08:39:00,
2013-07-06 04:59:00,71.2,71.2,30.16,SSW,204,3.0,8.3,100,0.00,,CLR,0.00,VWS V14.00,2013-07-06 08:59:00,
2013-07-06 05:19:00,70.3,70.3,30.16,ESE,117,0.0,9.4,100,0.00,,CLR,0.00,VWS V14.00,2013-07-06 09:19:00,
2013-07-06 05:39:00,71.2,71.2,30.17,SE,131,0.0,7.5,100,0.00,,CLR,0.00,VWS V14.00,2013-07-06 09:39:00,
2013-07-06 05:59:00,71.0,71.0,30.17,SE,135,0.0,6.8,100,0.00,,SCT250,0.00,VWS V14.00,2013-07-06 09:59:00,
2013-07-06 06:19:00,69.4,69.4,30.18,SE,135,0.0,0.0,100,0.00,,SCT250,0.00,VWS V14.00,2013-07-06 10:19:00,
2013-07-06 06:39:00,70.6,70.6,30.18,ESE,114,0.0,4.5,100,0.00,,SCT250,0.00,VWS V14.00,2013-07-06 10:39:00,
2013-07-06 06:59:00,70.0,70.0,30.18,SW,229,0.0,4.9,100,0.00,,SCT250,0.00,VWS V14.00,2013-07-06 10:59:00,
2013-07-06 07:19:00,70.8,70.8,30.18,West,259,0.0,4.8,100,0.00,,SCT250,0.00,VWS V14.00,2013-07-06 11:19:00,
2013-07-06 07:39:00,70.7,70.7,30.19,SSW,195,4.3,6.0,100,0.00,,SCT250,0.00,VWS V14.00,2013-07-06 11:39:00,
2013-07-06 07:59:00,73.7,73.7,30.19,SSE,158,0.0,8.6,100,0.00,,SCT250,0.00,VWS V14.00,2013-07-06 11:59:00,
2013-07-06 08:19:00,74.6,74.6,30.19,SW,217,0.0,8.1,100,0.00,,SCT250,0.00,VWS V14.00,2013-07-06 12:19:00,
2013-07-06 08:39:00,76.2,76.2,30.19,SSW,202,6.0,10.7,100,0.00,,SCT250,0.00,VWS V14.00,2013-07-06 12:39:00,
2013-07-06 08:59:00,75.5,74.4,30.18,SE,145,0.0,9.3,96,0.00,,SCT250,0.00,VWS V14.00,2013-07-06 12:59:00,
2013-07-06 09:19:00,77.5,75.3,30.18,SSW,212,6.8,9.3,93,0.00,,FEW250,0.00,VWS V14.00,2013-07-06 13:19:00,
2013-07-06 09:39:00,78.8,75.9,30.18,SSE,155,5.5,7.9,91,0.00,,FEW250,0.00,VWS V14.00,2013-07-06 13:39:00,
2013-07-06 09:59:00,79.3,74.8,30.18,SW,222,0.0,8.7,86,0.00,,FEW250,0.00,VWS V14.00,2013-07-06 13:59:00,
2013-07-06 10:19:00,81.4,74.4,30.18,SSW,208,0.0,8.7,80,0.00,,FEW250,0.00,VWS V14.00,2013-07-06 14:19:00,
2013-07-06 10:39:00,82.6,73.5,30.18,WNW,300,0.0,9.6,74,0.00,,FEW250,0.00,VWS V14.00,2013-07-06 14:39:00,
2013-07-06 10:59:00,82.3,71.4,30.18,South,184,0.0,10.1,70,0.00,,FEW020,0.00,VWS V14.00,2013-07-06 14:59:00,
2013-07-06 11:19:00,83.9,71.1,30.17,West,259,2.6,7.2,65,0.00,,FEW020,0.00,VWS V14.00,2013-07-06 15:19:00,
2013-07-06 11:39:00,84.9,68.8,30.17,SSE,165,4.6,10.0,59,0.00,,FEW020,0.00,VWS V14.00,2013-07-06 15:39:00,
2013-07-06 11:59:00,85.0,68.2,30.16,SE,132,3.2,9.3,57,0.00,,SCT250,0.00,VWS V14.00,2013-07-06 15:59:00,
2013-07-06 12:59:00,86.8,67.7,30.15,WSW,243,0.0,8.9,53,0.00,,SCT250,0.00,VWS V14.00,2013-07-06 16:59:00,
2013-07-06 13:19:00,88.4,67.3,30.14,WSW,255,0.0,8.8,50,0.00,,SCT250,0.00,VWS V14.00,2013-07-06 17:19:00,
2013-07-06 13:39:00,88.1,66.2,30.14,SE,141,6.0,10.0,48,0.00,,SCT250,0.00,VWS V14.00,2013-07-06 17:39:00,
2013-07-06 13:59:00,86.7,65.5,30.13,East,82,0.0,11.4,49,0.00,,SCT250,0.00,VWS V14.00,2013-07-06 17:59:00,
2013-07-06 14:59:00,89.9,66.3,30.12,South,183,3.0,11.4,46,0.00,,SCT250,0.00,VWS V14.00,2013-07-06 18:59:00,
2013-07-06 15:19:00,91.7,66.7,30.11,SSW,200,7.9,11.8,44,0.00,,SCT250,0.00,VWS V14.00,2013-07-06 19:19:00,
2013-07-06 15:39:00,91.0,65.8,30.11,SSE,166,8.8,12.2,44,0.00,,SCT250,0.00,VWS V14.00,2013-07-06 19:39:00,
2013-07-06 16:19:00,88.3,64.0,30.10,SSE,149,5.9,9.8,44,0.00,,SCT250,0.00,VWS V14.00,2013-07-06 20:19:00,
2013-07-06 16:39:00,90.7,66.1,30.09,South,179,4.5,13.0,44,0.00,,SCT250,0.00,VWS V14.00,2013-07-06 20:39:00,
2013-07-06 16:59:00,90.9,66.8,30.09,South,172,8.7,11.6,45,0.00,,BKN055TCU,0.00,VWS V14.00,2013-07-06 20:59:00,
2013-07-06 17:39:00,89.6,64.8,30.08,SW,228,4.2,11.9,44,0.00,,BKN055TCU,0.00,VWS V14.00,2013-07-06 21:39:00,
2013-07-06 18:19:00,89.3,67.0,30.07,South,180,6.5,11.0,48,0.00,,SCT250,0.00,VWS V14.00,2013-07-06 22:19:00,
2013-07-06 18:39:00,83.9,66.9,30.07,WSW,243,4.2,12.7,57,0.00,,SCT250,0.00,VWS V14.00,2013-07-06 22:39:00,
2013-07-06 18:59:00,84.4,68.7,30.07,WSW,239,5.3,12.2,59,0.00,,SCT250,0.00,VWS V14.00,2013-07-06 22:59:00,
2013-07-06 19:39:00,82.0,69.1,30.08,South,169,3.0,11.7,65,0.00,,SCT250,0.00,VWS V14.00,2013-07-06 23:39:00,
2013-07-06 19:59:00,80.6,69.1,30.08,South,174,3.5,7.7,68,0.00,,FEW050,0.00,VWS V14.00,2013-07-06 23:59:00,
2013-07-06 20:19:00,81.4,71.1,30.08,SSE,156,3.5,9.4,71,0.00,,SCT200,0.00,VWS V14.00,2013-07-07 00:19:00,
2013-07-06 21:19:00,79.1,70.8,30.09,South,184,3.3,9.1,76,0.00,,SCT200,0.00,VWS V14.00,2013-07-07 01:19:00,
2013-07-06 21:39:00,78.2,70.5,30.10,South,170,2.7,8.2,77,0.00,,SCT200,0.00,VWS V14.00,2013-07-07 01:39:00,
2013-07-06 21:59:00,77.1,70.6,30.11,South,188,0.0,5.7,80,0.00,,SCT250,0.00,VWS V14.00,2013-07-07 01:59:00,
2013-07-06 22:19:00,77.0,71.6,30.11,SW,219,0.0,5.2,83,0.00,,SCT250,0.00,VWS V14.00,2013-07-07 02:19:00,
2013-07-06 22:39:00,76.5,71.7,30.11,South,169,0.0,6.5,85,0.00,,SCT250,0.00,VWS V14.00,2013-07-07 02:39:00,
2013-07-06 23:19:00,74.1,71.4,30.12,SSW,202,0.0,3.2,91,0.00,,FEW150,0.00,VWS V14.00,2013-07-07 03:19:00,